Flag for Tunisia Weather past 2 weeks in Houmt Souk (Djerba), Tunisia

Now
102 °F

Passing clouds.


Feels Like: 103 °F
Forecast: 76 / 92 °F
Wind: 9 mph from Northeast

Location: Djerba Mellita

Current Time: Sep 16, 2014 at 4:35:33 PM

Latest Report: Sep 16, 2014 at 4:00 PM


Visibility: 5 mi

Pressure: 29.80 "Hg

Humidity: 26%

Dew point: 61 °F

Location of Houmt Souk (Djerba)Location

Historic Weather in Houmt Souk (Djerba) — Graph

°F

Houmt Souk (Djerba) temperature yesterday

Maximum temperature yesterday: 100 °F (at 3:00 PM)
Minimum temperature yesterday: 75 °F (at 6:00 AM)
Average temperature yesterday: 88 °F

Past Weeks' High & Low Weather Summary

 TemperatureHumidityPressure
High104 °F (Sep 1, 5:00 PM)94% (Sep 10, 3:30 AM)30.04 "Hg (Sep 10, 3:30 AM)
Low72 °F (Sep 3, 6:00 AM)10% (Sep 1, 5:00 PM)29.77 "Hg (Sep 1, 5:30 PM)
Average84 °F65%29.89 "Hg
* Reported Sep 1 3:00 PM — Sep 16 3:30 PM, Houmt Souk (Djerba), Weather by CustomWeather, © 2014

Note: Actual official high and low records may vary slightly from our data, if they occured in-between our weather recording intervals... More about our weather records

Advertising

Houmt Souk (Djerba) weather history for previous 24 hours

 ConditionsComfort  
Time TempWeatherWind HumidityBarometerVisibility
3:30 PM
Sep 16
104 °FClear.9 mph21%29.80 "Hg5 mi
3:00 PM102 °FClear.5 mph26%29.80 "Hg5 mi
2:30 PM100 °FClear.7 mph37%29.80 "Hg5 mi
2:00 PM100 °FClear.9 mph35%29.80 "Hg5 mi
1:30 PM104 °FClear.7 mph20%29.83 "Hg5 mi
12:30 PM100 °FSunny.No wind27%29.86 "Hg10 mi
12:00 PM99 °FSunny.7 mph29%29.89 "Hg10 mi
11:30 AM97 °FScattered clouds.10 mph32%29.89 "Hg5 mi
11:00 AM97 °FScattered clouds.15 mph34%29.89 "Hg5 mi
10:30 AM95 °FScattered clouds.17 mph36%29.89 "Hg5 mi
10:00 AM95 °FScattered clouds.15 mph34%29.89 "Hg5 mi
9:30 AM95 °FScattered clouds.13 mph34%29.89 "Hg5 mi
9:00 AM91 °FScattered clouds.17 mph38%29.86 "Hg4 mi
8:30 AM91 °FScattered clouds.15 mph41%29.86 "Hg4 mi
8:00 AM86 °FScattered clouds.18 mph55%29.86 "Hg4 mi
7:30 AM82 °FScattered clouds.15 mph79%29.86 "Hg4 mi
7:00 AM82 °FScattered clouds.8 mph84%29.89 "Hg4 mi
6:30 AM82 °FPassing clouds.7 mph84%29.89 "Hg4 mi
6:00 AM84 °FPassing clouds.3 mph79%29.92 "Hg4 mi
4:30 AM84 °FPassing clouds.12 mph79%29.89 "Hg4 mi
4:00 AM84 °FPassing clouds.14 mph79%29.92 "Hg4 mi
3:30 AM84 °FWarm.20 mph74%29.92 "HgN/A
3:00 AM82 °FPassing clouds.6 mph79%29.86 "Hg5 mi
2:30 AM82 °FPassing clouds.6 mph79%29.86 "Hg5 mi
2:00 AM84 °FPassing clouds.8 mph74%29.89 "Hg5 mi
1:30 AM84 °FClear.5 mph74%29.89 "Hg5 mi
1:00 AM84 °FClear.10 mph74%29.86 "Hg5 mi
12:30 AM84 °FClear.9 mph74%29.89 "Hg10 mi
12:00 AM84 °FClear.12 mph74%29.92 "Hg10 mi
11:30 PM
Sep 15
86 °FPassing clouds.12 mph75%29.92 "HgN/A
11:00 PM84 °FClear.8 mph62%29.92 "Hg10 mi
10:30 PM86 °FClear.5 mph55%29.89 "Hg10 mi
10:00 PM86 °FClear.6 mph55%29.89 "Hg10 mi
9:30 PM86 °FClear.8 mph59%29.89 "Hg10 mi
9:00 PM86 °FClear.9 mph55%29.86 "Hg10 mi
8:30 PM88 °FClear.8 mph49%29.86 "Hg10 mi
8:00 PM90 °FClear.8 mph46%29.86 "Hg10 mi
7:30 PM90 °FClear.8 mph49%29.86 "Hg10 mi
6:30 PM95 °FPassing clouds.7 mph36%29.83 "HgN/A
6:00 PM97 °FPassing clouds.7 mph28%29.83 "HgN/A
5:30 PM97 °FPassing clouds.7 mph27%29.83 "HgN/A
5:00 PM97 °FPassing clouds.8 mph32%29.86 "HgN/A
4:30 PM97 °FSunny.7 mph32%29.86 "Hg10 mi
4:00 PM95 °FSunny.8 mph34%29.86 "Hg10 mi
Weather by CustomWeather, © 2014

See weather overviewHow to use our weather pages